Weather reports worldwide

Advertisment
Lahr, Germany (10805): temperature & dewpoint: 09.12.2018 23:00:00 - 15.12.2018 23:00:00 (CET)Lahr, Germany (10805): temperature 5cm & temperature -5cm: 09.12.2018 23:00:00 - 15.12.2018 23:00:00 (CET)Lahr, Germany (10805): temperature -20cm & temperature -100cm: 09.12.2018 23:00:00 - 15.12.2018 23:00:00 (CET)Lahr, Germany (10805): wind speed & gusts: 09.12.2018 23:00:00 - 15.12.2018 23:00:00 (CET)Lahr, Germany (10805): wind direction: 09.12.2018 23:00:00 - 15.12.2018 23:00:00 (CET)Lahr, Germany (10805): reduced air pressure: 09.12.2018 23:00:00 - 15.12.2018 23:00:00 (CET)Lahr, Germany (10805): visibility: 09.12.2018 23:00:00 - 15.12.2018 23:00:00 (CET)Lahr, Germany (10805): sunshine duration: 09.12.2018 23:00:00 - 15.12.2018 23:00:00 (CET)Lahr, Germany (10805): precipitation: 09.12.2018 23:00:00 - 15.12.2018 23:00:00 (CET)
Date & Time tt [°C] td [°C] tt 5cm [°C] tt -5cm [°C] tt -20cm [°C] tt -100cm [°C] ff [km/h] ff [kn] fx [km/h] fx [kn] dd ppp [hPa] vv [km] sd [min] rr [mm]
15.12.2018 23:00:00 - - - - - - - - - - - - - - -
15.12.2018 22:00:00 -1,4 -5,3 -2,2 0,5 2,5 8,8 8 4 14 7 SSE 1020,6 10 0 0,0
15.12.2018 21:00:00 -1,6 -5,2 -3,1 0,5 2,5 8,8 9 5 12 6 S 1021,2 10 0 0,0
15.12.2018 20:00:00 -1,4 -5,0 -3,3 0,5 2,6 8,8 9 5 9 5 S 1021,8 10 0 0,0
15.12.2018 19:00:00 -1,5 -4,5 -3,2 0,5 2,6 8,9 9 5 9 5 SSE 1022,8 10 0 0,0
15.12.2018 18:00:00 -1,9 -5,2 -4,3 0,5 2,6 8,9 5 3 9 5 W 1023,6 10 0 0,0
15.12.2018 17:00:00 -0,9 -5,2 -4,4 0,5 2,6 8,9 2 1 7 4 - 1023,5 10 0 0,0
15.12.2018 16:00:00 0,5 -5,0 -0,8 0,5 2,6 8,9 5 3 10 5 NNW 1023,8 14 54 0,0
15.12.2018 15:00:00 1,0 -5,0 0,1 0,5 2,6 8,9 4 2 9 5 NNE 1024,4 15 0 0,0
15.12.2018 14:00:00 1,0 -4,3 0,7 0,5 2,6 8,9 6 4 16 9 ENE 1024,4 15 9 0,0
15.12.2018 13:00:00 0,9 -4,8 1,2 0,5 2,6 8,9 8 4 14 8 E 1024,7 15 6 0,0
15.12.2018 12:00:00 0,7 -5,3 1,0 0,5 2,6 9,0 4 2 16 9 - 1025,4 10 0 0,0
15.12.2018 11:00:00 0,7 -4,2 0,6 0,5 2,6 9,0 7 4 17 9 E 1026,2 14 0 0,0
15.12.2018 10:00:00 0,4 -4,8 0,2 0,5 2,6 9,0 15 8 16 9 ESE 1026,0 10 0 0,0
15.12.2018 09:00:00 0,5 -4,5 0,1 0,5 2,6 9,0 9 5 15 8 E 1025,5 14 0 0,0
15.12.2018 08:00:00 0,3 -3,7 -0,1 0,5 2,6 9,0 5 3 8 5 E 1025,4 12 0 0,0
15.12.2018 07:00:00 -0,2 -2,6 -0,6 0,5 2,6 9,0 4 2 5 3 NE 1025,5 10 0 0,0
15.12.2018 06:00:00 -0,2 -2,8 -0,8 0,5 2,6 9,0 3 2 5 3 NNW 1025,5 10 0 0,0
15.12.2018 05:00:00 -0,2 -3,0 -0,8 0,5 2,7 9,1 4 2 8 5 N 1025,4 10 0 0,0
15.12.2018 04:00:00 0,0 -3,1 -0,7 0,5 2,7 9,1 2 1 8 4 NW 1025,6 11 0 0,0
15.12.2018 03:00:00 -0,1 -2,7 -0,7 0,5 2,7 9,1 4 2 6 4 NNW 1025,3 10 0 0,0
15.12.2018 02:00:00 -0,1 -3,0 -0,7 0,5 2,7 9,1 5 3 6 3 N 1024,6 10 0 0,0
15.12.2018 01:00:00 0,1 -3,0 -0,7 0,5 2,7 9,1 4 2 7 4 NNE 1024,4 11 0 0,0
15.12.2018 00:00:00 0,0 -3,1 -0,5 0,5 2,7 9,1 6 3 11 6 NNE 1024,0 11 0 0,0
14.12.2018 23:00:00 -0,1 -3,0 -0,7 0,5 2,7 9,1 5 3 10 5 N 1024,1 11 0 0,0
14.12.2018 22:00:00 0,0 -3,3 -0,5 0,5 2,7 9,2 7 4 12 7 N 1024,5 11 0 0,0
14.12.2018 21:00:00 0,4 -3,8 -0,2 0,5 2,7 9,2 8 4 12 7 NNE 1024,1 14 0 0,0
14.12.2018 20:00:00 0,6 -3,8 0,0 0,4 2,7 9,2 10 5 12 7 NE 1023,8 13 0 0,0
14.12.2018 19:00:00 0,5 -3,6 0,0 0,4 2,7 9,2 8 4 12 7 ENE 1023,4 10 0 0,0
14.12.2018 18:00:00 0,9 -4,0 0,3 0,4 2,7 9,2 8 4 16 9 ENE 1022,7 10 0 0,0
14.12.2018 17:00:00 0,7 -2,8 0,1 0,4 2,7 9,2 9 5 14 8 E 1021,9 10 0 0,0
14.12.2018 16:00:00 1,0 -3,0 0,4 0,4 2,8 9,3 9 5 15 8 ENE 1021,2 13 0 0,0
14.12.2018 15:00:00 1,5 -3,6 1,0 0,3 2,8 9,3 10 5 16 9 NE 1020,4 15 0 0,0
14.12.2018 14:00:00 1,6 -3,6 1,2 0,3 2,8 9,3 9 5 17 9 NE 1020,0 10 0 0,0
14.12.2018 13:00:00 1,5 -2,7 1,5 0,3 2,8 9,3 11 6 16 9 N 1020,0 10 0 0,0
14.12.2018 12:00:00 1,2 -2,5 1,3 0,3 2,8 9,3 9 5 14 8 NNE 1020,2 10 16 0,0
14.12.2018 11:00:00 0,5 -2,7 0,7 0,2 2,9 9,3 9 5 11 6 NNE 1020,3 10 56 0,0
14.12.2018 10:00:00 -2,0 -3,8 -2,6 0,2 2,9 9,3 7 4 10 5 NNE 1020,0 8 19 0,0
14.12.2018 09:00:00 -4,3 -5,6 -5,3 0,3 2,9 9,4 9 5 11 6 NE 1019,2 7 0 0,0
14.12.2018 08:00:00 -3,1 -4,3 -4,8 0,4 3,0 9,4 8 4 11 6 NE 1018,6 8 0 0,0
14.12.2018 07:00:00 -3,0 -4,3 -5,0 0,5 3,0 9,4 7 4 11 6 NE 1018,0 8 0 0,0
14.12.2018 06:00:00 -3,7 -5,1 -5,6 0,6 3,0 9,4 5 3 10 6 NE 1017,8 8 0 0,0
14.12.2018 05:00:00 -2,5 -4,0 -5,0 0,6 3,0 9,4 7 4 9 5 NE 1017,7 10 0 0,0
14.12.2018 04:00:00 -3,0 -4,8 -4,9 0,6 3,1 9,4 4 2 8 4 NNE 1017,5 10 0 0,0
14.12.2018 03:00:00 -2,3 -3,8 -3,9 0,7 3,1 9,4 5 3 18 10 NNE 1017,8 11 0 0,0
14.12.2018 02:00:00 -2,1 -4,0 -3,3 0,7 3,1 9,4 15 8 22 12 N 1017,0 10 0 0,0
14.12.2018 01:00:00 -1,5 -3,8 -2,8 0,7 3,1 9,5 13 7 18 10 NNE 1016,9 11 0 0,0
14.12.2018 00:00:00 0,1 -2,4 -1,2 0,7 3,1 9,5 13 7 18 10 NE 1016,9 10 0 0,0
13.12.2018 23:00:00 0,2 -2,3 -0,3 0,8 3,2 9,5 11 6 16 8 NNE 1016,8 12 0 0,0
13.12.2018 22:00:00 0,2 -2,1 -0,3 0,8 3,2 9,5 11 6 16 8 NNE 1016,6 11 0 0,0
13.12.2018 21:00:00 0,4 -2,0 -0,1 0,8 3,2 9,5 10 6 15 8 NE 1016,2 11 0 0,0
13.12.2018 20:00:00 0,7 -2,0 0,1 0,8 3,2 9,5 13 7 21 12 NNE 1015,9 10 0 0,0
13.12.2018 19:00:00 0,7 -1,9 0,3 0,8 3,3 9,5 15 8 23 13 NNE 1015,9 10 0 0,0
13.12.2018 18:00:00 0,9 -1,9 0,5 0,8 3,3 9,6 18 10 22 12 NNE 1016,0 10 0 0,0
13.12.2018 17:00:00 1,0 -1,7 0,5 0,8 3,3 9,6 15 8 23 13 NNE 1015,9 13 0 0,0
13.12.2018 16:00:00 1,3 -2,1 0,5 0,8 3,3 9,6 15 8 24 13 NNE 1015,7 10 1 0,0
13.12.2018 15:00:00 2,0 -1,5 1,6 0,8 3,3 9,6 9 5 28 15 N 1015,5 10 0 0,0
13.12.2018 14:00:00 2,4 -3,0 1,9 0,7 3,4 9,6 18 10 28 15 ENE 1015,7 37 0 0,0
13.12.2018 13:00:00 1,8 -0,6 1,5 0,7 3,4 9,6 15 8 22 12 NNE 1015,6 10 0 0,0
13.12.2018 12:00:00 0,1 -1,4 0,0 0,7 3,4 9,6 15 8 19 10 NNE 1016,2 10 49 0,0
13.12.2018 11:00:00 -0,6 -1,6 -0,3 0,7 3,5 9,6 9 5 11 6 NNE 1016,8 11 2 0,0
13.12.2018 10:00:00 -1,5 -2,3 -1,3 0,7 3,5 9,7 7 4 10 5 N 1017,2 9 0 0,0
13.12.2018 09:00:00 -2,6 -3,3 -3,6 0,8 3,6 9,7 7 4 11 6 N 1017,5 11 0 0,0
13.12.2018 08:00:00 -3,2 -3,8 -4,2 0,8 3,6 9,7 9 5 12 6 N 1017,4 11 0 0,0
13.12.2018 07:00:00 -3,1 -3,8 -4,4 0,8 3,6 9,7 9 5 10 5 NNE 1017,6 12 0 0,0
13.12.2018 06:00:00 -2,2 -2,8 -3,8 0,9 3,7 9,7 5 3 13 7 NE 1018,0 13 0 0,0
13.12.2018 05:00:00 -2,0 -2,4 -2,3 0,9 3,8 9,7 5 3 7 4 N 1018,6 10 0 0,0
13.12.2018 04:00:00 -2,5 -2,8 -3,6 0,9 3,8 9,7 3 1 9 5 NNE 1019,0 8 0 0,0
13.12.2018 03:00:00 -2,9 -3,1 -4,3 0,9 3,9 9,7 4 2 6 3 N 1019,7 6 0 0,0
13.12.2018 02:00:00 -3,4 -3,4 -3,8 1,0 4,0 9,8 4 2 11 6 N 1020,1 0,2 0 0,0
13.12.2018 01:00:00 -2,9 -2,9 -3,0 1,1 4,1 9,8 7 4 13 7 NE 1020,5 0,3 0 0,0
13.12.2018 00:00:00 -2,8 -2,8 -2,8 1,2 4,2 9,8 5 3 6 4 SW 1021,1 0,5 0 0,0
12.12.2018 23:00:00 -2,3 -2,3 -2,3 1,4 4,3 9,8 3 1 6 4 NNE 1021,3 0,1 0 0,0
12.12.2018 22:00:00 -1,1 -1,1 -1,4 2,0 4,3 9,8 0 0 6 3 N 1021,5 0,1 0 0,0
12.12.2018 21:00:00 -0,1 -0,1 0,1 2,3 4,4 9,8 3 2 7 4 NE 1022,1 0,1 0 0,0
12.12.2018 20:00:00 0,5 0,5 0,6 2,5 4,4 9,8 6 3 11 6 ENE 1022,1 0,3 0 0,0
12.12.2018 19:00:00 1,4 1,3 1,4 2,6 4,4 9,8 5 3 9 5 - 1022,1 1,9 0 0,0
12.12.2018 18:00:00 1,2 0,8 1,2 2,6 4,4 9,9 4 2 12 7 NE 1022,4 3,1 0 0,0
12.12.2018 17:00:00 1,5 1,1 1,4 2,8 4,3 9,9 13 7 16 9 NNE 1022,6 4,5 0 0,0
12.12.2018 16:00:00 0,9 0,7 1,2 3,2 4,2 9,9 14 8 22 12 NNE 1023,0 2,5 0 0,0
12.12.2018 15:00:00 1,0 0,4 1,6 3,4 4,1 9,9 15 8 21 11 N 1023,2 4,9 0 0,0
12.12.2018 14:00:00 1,0 0,4 1,7 3,0 4,0 9,9 8 5 16 9 NE 1023,7 4,7 0 0,0
12.12.2018 13:00:00 0,8 -0,1 1,8 1,9 3,9 9,9 8 4 18 10 N 1024,4 4,5 7 0,0
12.12.2018 12:00:00 1,1 0,4 2,7 1,1 4,0 9,9 9 5 13 7 NNE 1024,8 5 33 0,0
12.12.2018 11:00:00 -0,7 -0,9 -0,1 1,0 4,0 9,9 5 3 8 4 NE 1025,5 3,3 6 0,0
12.12.2018 10:00:00 -2,2 -2,2 -1,3 1,0 4,1 9,9 3 1 4 2 WNW 1025,7 0,3 0 0,0
12.12.2018 09:00:00 -2,6 -2,6 -2,2 1,0 4,1 9,9 3 2 6 4 NE 1025,5 0,1 0 0,0
12.12.2018 08:00:00 -2,9 -2,9 -2,6 1,0 4,2 10,0 3 2 5 3 NE 1025,5 0,2 0 0,0
12.12.2018 07:00:00 -2,6 -2,6 -3,4 1,0 4,3 10,0 0 0 7 4 N 1025,2 0,2 0 0,0
12.12.2018 06:00:00 -2,9 -3,3 -4,7 1,0 4,4 10,0 3 2 6 3 NE 1025,3 0,3 0 0,0
12.12.2018 05:00:00 -1,8 -1,8 -4,0 1,1 4,4 10,0 4 2 7 4 WSW 1025,4 9 0 0,0
12.12.2018 04:00:00 -0,7 -1,0 -2,3 1,1 4,5 10,0 7 4 14 8 S 1025,4 16 0 0,0
12.12.2018 03:00:00 -0,4 -0,4 -2,1 1,2 4,7 10,0 3 1 4 2 S 1025,4 8 0 0,0
12.12.2018 02:00:00 -0,4 -0,8 -2,0 1,3 4,8 10,0 3 2 6 3 NNW 1025,5 9 0 0,0
12.12.2018 01:00:00 -0,1 -0,6 -1,3 1,3 4,9 10,0 4 2 9 5 - 1025,5 10 0 0,0
12.12.2018 00:00:00 0,8 0,1 -0,7 1,4 5,1 10,0 8 4 16 8 ENE 1025,6 10 0 0,0
11.12.2018 23:00:00 0,0 -0,4 -1,3 1,5 5,2 10,0 12 6 16 8 NE 1025,5 7 0 0,0
11.12.2018 22:00:00 0,9 0,1 -0,6 2,1 5,4 10,0 4 2 8 4 - 1025,4 10 0 0,0
11.12.2018 21:00:00 0,5 0,0 -0,6 2,0 5,6 10,1 2 1 10 6 - 1025,8 10 0 0,0
11.12.2018 20:00:00 1,1 0,2 -0,9 2,4 5,8 10,1 4 2 7 4 NE 1025,7 14 0 0,0
11.12.2018 19:00:00 0,4 -0,6 -1,4 2,7 5,9 10,1 4 2 5 3 NE 1025,9 10 0 0,0
11.12.2018 18:00:00 2,0 0,4 0,0 3,8 6,0 10,1 5 3 8 4 E 1025,5 10 0 0,0
11.12.2018 17:00:00 3,9 1,1 2,7 4,7 6,0 10,1 2 1 5 3 - 1025,0 10 0 0,0
11.12.2018 16:00:00 5,0 0,1 3,3 5,5 5,9 10,1 4 2 6 3 W 1025,1 57 0 0,0
11.12.2018 15:00:00 5,7 0,0 5,3 6,4 5,7 10,1 5 3 9 5 W 1025,1 55 4 0,0
11.12.2018 14:00:00 5,9 0,2 6,8 6,7 5,4 10,1 5 3 10 6 W 1025,4 50 3 0,0
11.12.2018 13:00:00 5,4 -0,2 6,8 5,9 5,2 10,1 5 3 10 5 SW 1025,9 10 3 0,0
11.12.2018 12:00:00 4,7 1,6 5,4 4,8 5,0 10,1 8 5 12 6 SW 1026,4 46 8 0,0
11.12.2018 11:00:00 4,0 1,4 4,3 3,5 5,0 10,1 11 6 12 6 SW 1026,9 10 0 0,0
11.12.2018 10:00:00 3,1 1,1 2,5 2,3 5,0 10,1 4 2 13 7 - 1026,7 10 0 0,0
11.12.2018 09:00:00 1,6 1,1 0,5 1,8 5,1 10,1 6 3 9 5 S 1026,5 19 0 0,0
11.12.2018 08:00:00 1,1 0,8 0,4 1,6 5,2 10,1 5 3 9 5 SW 1026,6 10 0 0,0
11.12.2018 07:00:00 0,9 0,7 -0,1 1,5 5,4 10,1 6 3 8 5 WSW 1026,6 18 0 0,0
11.12.2018 06:00:00 -0,3 -1,0 -1,8 1,5 5,5 10,1 4 2 10 5 SSW 1026,7 9 0 0,0
11.12.2018 05:00:00 0,0 -0,2 -1,3 1,6 5,8 10,2 5 3 11 6 SSW 1026,7 14 0 0,0
11.12.2018 04:00:00 0,2 -0,4 -2,7 1,7 5,9 10,2 2 1 6 3 SSW 1026,5 15 0 0,0
11.12.2018 03:00:00 1,8 0,5 -1,9 2,5 6,1 10,2 0 0 14 8 N 1026,4 28 0 0,0
11.12.2018 02:00:00 2,9 0,9 -0,2 3,3 6,2 10,2 8 4 11 6 N 1026,2 37 0 0,0
11.12.2018 01:00:00 3,2 1,4 2,2 3,8 6,3 10,2 4 2 6 4 ESE 1026,2 20 0 0,0
11.12.2018 00:00:00 4,3 2,5 3,6 3,8 6,4 10,2 6 3 8 5 S 1026,0 27 0 0,0
10.12.2018 23:00:00 4,9 1,7 3,9 3,6 6,5 10,2 8 4 12 7 NW 1025,9 58 0 0,0
10.12.2018 22:00:00 4,5 1,7 1,6 4,0 6,6 10,2 6 4 19 10 W 1025,5 57 0 0,0
10.12.2018 21:00:00 5,5 2,6 4,4 4,5 6,7 10,2 9 5 14 7 W 1025,6 36 0 0,0
10.12.2018 20:00:00 4,7 2,7 3,6 4,3 6,8 10,2 3 2 11 6 S 1025,5 20 0 0,0
10.12.2018 19:00:00 4,3 2,8 2,8 4,2 6,9 10,2 7 4 14 8 S 1025,5 34 0 0,0
10.12.2018 18:00:00 4,5 3,2 2,9 4,6 7,0 10,2 8 5 17 9 SSW 1025,2 33 0 0,0
10.12.2018 17:00:00 4,3 3,4 3,1 5,6 7,0 10,2 11 6 18 10 SW 1024,8 49 0 0,0
10.12.2018 16:00:00 5,9 4,3 4,9 6,4 7,0 10,2 5 3 10 5 S 1024,8 49 31 0,0
10.12.2018 15:00:00 5,3 4,1 4,7 6,1 7,0 10,2 8 4 24 13 NNW 1025,0 10 0 2,0
10.12.2018 14:00:00 5,4 4,2 4,9 6,4 6,9 10,2 14 7 23 12 N 1025,2 3,3 0 0,5
10.12.2018 13:00:00 7,3 2,8 7,1 6,3 6,8 10,2 9 5 15 8 SSW 1025,0 55 0 0,0
10.12.2018 12:00:00 7,2 3,1 7,0 6,0 6,8 10,2 9 5 17 9 WSW 1025,6 67 0 0,0
10.12.2018 11:00:00 6,9 3,4 6,6 5,6 6,8 10,2 6 3 11 6 WSW 1025,7 53 1 0,0
10.12.2018 10:00:00 6,0 3,4 4,9 5,0 6,8 10,2 11 6 20 11 SSW 1025,1 10 13 0,0
10.12.2018 09:00:00 5,3 3,8 4,6 4,5 6,9 10,2 15 8 23 13 SSW 1024,6 10 0 0,0
10.12.2018 08:00:00 5,4 2,8 4,3 4,4 7,0 10,2 14 8 22 12 W 1024,3 37 0 0,0
10.12.2018 07:00:00 4,6 3,3 3,7 5,0 7,1 10,2 7 4 13 7 SW 1023,9 65 0 0,0
10.12.2018 06:00:00 5,3 3,3 4,0 5,3 7,2 10,2 6 4 20 11 ENE 1023,3 61 0 0,1
10.12.2018 05:00:00 6,0 2,9 4,9 5,2 7,2 10,2 7 4 11 6 S 1022,7 49 0 0,0
10.12.2018 04:00:00 6,6 1,5 5,4 5,1 7,3 10,2 7 4 23 12 SSW 1022,3 70 0 0,0
10.12.2018 03:00:00 7,0 1,4 5,5 5,1 7,4 10,2 13 7 27 15 W 1022,2 70 0 0,0
10.12.2018 02:00:00 7,2 1,2 5,7 5,3 7,6 10,2 17 9 29 16 W 1021,0 70 0 0,0
10.12.2018 01:00:00 7,1 2,0 5,5 5,7 7,7 10,2 19 10 36 19 WNW 1020,3 70 0 0,0
10.12.2018 00:00:00 7,7 3,0 6,0 6,1 7,7 10,2 19 10 29 15 WNW 1019,1 70 0 0,0
09.12.2018 23:00:00 6,8 4,6 5,2 6,1 7,8 10,2 10 5 13 7 W 1018,0 70 0 0,1

tt = temperature
td = dewpoint
tt 5cm = temperature 5cm
tt -5cm = temperature -5cm
tt -20cm = temperature -20cm
tt -100cm = temperature -100cm
ff = wind speed
fx = gusts
dd = wind direction
ppp = reduced air pressure
vv = visibility
sd = sunshine duration
rr = precipitation

Next stations